| time (UTC) | temp C | wind direction | speed KPH | gust KPH | rain 1hr cm | rain 24hr cm | rain mn cm | humidity % | barometer mb |
| 20260508122124 | 1 | 228 | 0.0 | 1.6 | 0.00 | 0.00 | 0.00 | 75 | 1023.1 |
| 20260508121622 | 1 | 220 | 3.2 | 3.2 | 0.00 | 0.00 | 0.00 | 74 | 1023.1 |
| 20260508121120 | 1 | 211 | 3.2 | 3.2 | 0.00 | 0.00 | 0.00 | 73 | 1023.1 |
| 20260508120617 | 1 | 224 | 3.2 | 3.2 | 0.00 | 0.00 | 0.00 | 73 | 1022.9 |
| 20260508120116 | 1 | 214 | 4.8 | 4.8 | 0.00 | 0.00 | 0.00 | 71 | 1022.8 |
| 20260508115613 | 1 | 234 | 3.2 | 4.8 | 0.00 | 0.00 | 0.00 | 74 | 1022.8 |
| 20260508115109 | 1 | 232 | 1.6 | 3.2 | 0.00 | 0.00 | 0.00 | 72 | 1022.7 |
| 20260508114607 | 1 | 213 | 3.2 | 3.2 | 0.00 | 0.00 | 0.00 | 74 | 1022.5 |
| 20260508114102 | 1 | 250 | 0.0 | 3.2 | 0.00 | 0.00 | 0.00 | 74 | 1022.5 |
| 20260508113600 | 1 | 233 | 1.6 | 4.8 | 0.00 | 0.00 | 0.00 | 71 | 1022.7 |
| 20260508113058 | 2 | 224 | 1.6 | 3.2 | 0.00 | 0.00 | 0.00 | 69 | 1022.7 |
| 20260508112554 | 3 | 231 | 1.6 | 4.8 | 0.00 | 0.00 | 0.00 | 68 | 1022.7 |
| 20260508112051 | 3 | 155 | 6.4 | 11.3 | 0.00 | 0.00 | 0.00 | 67 | 1022.5 |
| 20260508111548 | 2 | 233 | 4.8 | 4.8 | 0.00 | 0.00 | 0.00 | 69 | 1022.5 |
| 20260508111045 | 3 | 285 | 3.2 | 9.7 | 0.00 | 0.00 | 0.00 | 65 | 1022.4 |
| 20260508110543 | 4 | 299 | 8.0 | 16.1 | 0.00 | 0.00 | 0.00 | 59 | 1022.4 |
| 20260508110038 | 3 | 249 | 0.0 | 6.4 | 0.00 | 0.00 | 0.00 | 64 | 1022.1 |
| 20260508105533 | 3 | 262 | 6.4 | 22.5 | 0.00 | 0.00 | 0.00 | 62 | 1022.3 |
| 20260508105031 | 2 | 247 | 1.6 | 3.2 | 0.00 | 0.00 | 0.00 | 67 | 1022.1 |
| 20260508104529 | 1 | 180 | 6.4 | 12.9 | 0.00 | 0.00 | 0.00 | 71 | 1022.3 |
| 20260508104025 | 1 | 207 | 6.4 | 9.7 | 0.00 | 0.00 | 0.00 | 80 | 1022.0 |
| 20260508103522 | 0 | 227 | 6.4 | 6.4 | 0.00 | 0.00 | 0.00 | 81 | 1022.3 |
| 20260508103020 | 1 | 256 | 0.0 | 4.8 | 0.00 | 0.00 | 0.00 | 79 | 1022.5 |
| 20260508102517 | 0 | 205 | 3.2 | 9.7 | 0.00 | 0.00 | 0.00 | 79 | 1022.3 |
| 20260508102015 | 0 | 248 | 0.0 | 4.8 | 0.00 | 0.00 | 0.00 | 80 | 1022.1 |
| 20260508101512 | 0 | 230 | 1.6 | 3.2 | 0.00 | 0.00 | 0.00 | 80 | 1022.0 |
| 20260508101008 | 0 | 210 | 3.2 | 3.2 | 0.00 | 0.00 | 0.00 | 80 | 1022.0 |
| 20260508100507 | 0 | 234 | 1.6 | 4.8 | 0.00 | 0.00 | 0.00 | 80 | 1021.8 |
| 20260508100003 | 0 | 216 | 0.0 | 0.0 | 0.00 | 0.00 | 0.00 | 79 | 1021.9 |
| 20260508095500 | 0 | 242 | 3.2 | 4.8 | 0.00 | 0.00 | 0.00 | 78 | 1022.0 |
| 20260508094957 | 0 | 230 | 0.0 | 0.0 | 0.00 | 0.00 | 0.00 | 79 | 1022.0 |
| 20260508094454 | 0 | 248 | 0.0 | 6.4 | 0.00 | 0.00 | 0.00 | 78 | 1021.9 |
| 20260508093950 | 0 | 220 | 3.2 | 4.8 | 0.00 | 0.00 | 0.00 | 81 | 1021.9 |
| 20260508093447 | 1 | 250 | 1.6 | 9.7 | 0.00 | 0.00 | 0.00 | 78 | 1022.0 |
| 20260508092945 | 1 | 224 | 1.6 | 4.8 | 0.00 | 0.00 | 0.00 | 78 | 1022.0 |
| 20260508092443 | 1 | 208 | 4.8 | 6.4 | 0.00 | 0.00 | 0.00 | 78 | 1022.1 |
| 20260508091942 | 1 | 282 | 1.6 | 4.8 | 0.00 | 0.00 | 0.00 | 77 | 1022.0 |
| 20260508091438 | 1 | 197 | 6.4 | 6.4 | 0.00 | 0.00 | 0.00 | 76 | 1022.1 |
| 20260508090935 | 2 | 252 | 0.0 | 3.2 | 0.00 | 0.00 | 0.00 | 69 | 1022.1 |
| 20260508090434 | 2 | 223 | 3.2 | 3.2 | 0.00 | 0.00 | 0.00 | 70 | 1022.3 |
| 20260508085929 | 3 | 230 | 3.2 | 4.8 | 0.00 | 0.00 | 0.00 | 66 | 1022.3 |
| 20260508085426 | 3 | 262 | 0.0 | 1.6 | 0.00 | 0.00 | 0.00 | 66 | 1022.3 |
| 20260508084923 | 2 | 129 | 3.2 | 4.8 | 0.00 | 0.00 | 0.00 | 65 | 1022.3 |
| 20260508084419 | 3 | 265 | 0.0 | 6.4 | 0.00 | 0.00 | 0.00 | 63 | 1022.3 |
| 20260508083918 | 4 | 238 | 1.6 | 4.8 | 0.00 | 0.00 | 0.00 | 60 | 1022.4 |
| 20260508083415 | 5 | 258 | 0.0 | 14.5 | 0.00 | 0.00 | 0.00 | 53 | 1022.4 |
| 20260508082914 | 3 | 11 | 9.7 | 17.7 | 0.00 | 0.00 | 0.00 | 57 | 1022.3 |
| 20260508082412 | 2 | 226 | 3.2 | 3.2 | 0.00 | 0.00 | 0.00 | 69 | 1023.1 |
| 20260508081910 | 2 | 265 | 0.0 | 3.2 | 0.00 | 0.00 | 0.00 | 67 | 1022.7 |
| 20260508081406 | 2 | 224 | 3.2 | 4.8 | 0.00 | 0.00 | 0.00 | 68 | 1022.7 |
| 20260508080902 | 3 | 230 | 1.6 | 3.2 | 0.00 | 0.00 | 0.00 | 67 | 1022.7 |
| 20260508080401 | 3 | 212 | 3.2 | 4.8 | 0.00 | 0.00 | 0.00 | 63 | 1022.7 |
| 20260508075857 | 5 | 246 | 8.0 | 11.3 | 0.00 | 0.00 | 0.00 | 59 | 1022.9 |
| 20260508075354 | 4 | 231 | 4.8 | 6.4 | 0.00 | 0.00 | 0.00 | 58 | 1022.9 |
| 20260508074852 | 4 | 267 | 3.2 | 4.8 | 0.00 | 0.00 | 0.00 | 61 | 1022.9 |
| 20260508074348 | 4 | 262 | 0.0 | 1.6 | 0.00 | 0.00 | 0.00 | 60 | 1023.1 |
| 20260508073845 | 5 | 243 | 3.2 | 9.7 | 0.00 | 0.00 | 0.00 | 63 | 1023.2 |
| 20260508073344 | 5 | 229 | 4.8 | 6.4 | 0.00 | 0.00 | 0.00 | 60 | 1022.9 |
| 20260508072840 | 5 | 270 | 6.4 | 6.4 | 0.00 | 0.00 | 0.00 | 60 | 1023.5 |
| 20260508072336 | 5 | 232 | 3.2 | 11.3 | 0.00 | 0.00 | 0.00 | 60 | 1023.3 |
| 20260508071834 | 5 | 292 | 6.4 | 16.1 | 0.00 | 0.00 | 0.00 | 56 | 1023.1 |
| 20260508071332 | 5 | 271 | 1.6 | 4.8 | 0.00 | 0.00 | 0.00 | 60 | 1023.2 |
| 20260508070829 | 5 | 353 | 11.3 | 14.5 | 0.00 | 0.00 | 0.00 | 57 | 1023.3 |
| 20260508070327 | 5 | 315 | 4.8 | 4.8 | 0.00 | 0.00 | 0.00 | 61 | 1023.3 |
| 20260508065824 | 5 | 287 | 12.9 | 17.7 | 0.00 | 0.00 | 0.00 | 60 | 1023.5 |
| 20260508065322 | 4 | 252 | 6.4 | 17.7 | 0.00 | 0.00 | 0.00 | 62 | 1023.7 |
| 20260508064820 | 4 | 252 | 4.8 | 12.9 | 0.00 | 0.00 | 0.00 | 68 | 1023.6 |
| 20260508064318 | 3 | 198 | 14.5 | 22.5 | 0.00 | 0.00 | 0.00 | 70 | 1023.6 |
| 20260508063815 | 2 | 219 | 6.4 | 9.7 | 0.00 | 0.00 | 0.00 | 75 | 1023.7 |
| 20260508063313 | 2 | 225 | 6.4 | 9.7 | 0.00 | 0.00 | 0.00 | 82 | 1023.9 |
| 20260508062810 | 1 | 244 | 4.8 | 6.4 | 0.00 | 0.00 | 0.00 | 81 | 1024.0 |
| 20260508062308 | 1 | 238 | 1.6 | 3.2 | 0.00 | 0.00 | 0.00 | 81 | 1023.6 |
| 20260508061804 | 2 | 179 | 4.8 | 4.8 | 0.00 | 0.00 | 0.00 | 79 | 1023.5 |
| 20260508061301 | 1 | 202 | 3.2 | 6.4 | 0.00 | 0.00 | 0.00 | 78 | 1023.5 |
| 20260508060758 | 2 | 232 | 1.6 | 4.8 | 0.00 | 0.00 | 0.00 | 77 | 1023.7 |
| 20260508060256 | 2 | 240 | 0.0 | 0.0 | 0.00 | 0.00 | 0.00 | 76 | 1023.3 |
| 20260508055751 | 2 | 241 | 1.6 | 3.2 | 0.00 | 0.23 | 0.23 | 75 | 1023.6 |
| 20260508055248 | 3 | 321 | 4.8 | 6.4 | 0.00 | 0.23 | 0.23 | 72 | 1023.6 |
| 20260508054744 | 3 | 260 | 0.0 | 1.6 | 0.00 | 0.23 | 0.23 | 64 | 1023.3 |
| 20260508054243 | 3 | 247 | 1.6 | 1.6 | 0.00 | 0.23 | 0.23 | 66 | 1023.6 |
| 20260508053739 | 2 | 209 | 4.8 | 6.4 | 0.00 | 0.23 | 0.23 | 70 | 1023.6 |
| 20260508053236 | 3 | 218 | 3.2 | 6.4 | 0.00 | 0.23 | 0.23 | 70 | 1023.6 |
| 20260508052734 | 3 | 230 | 0.0 | 4.8 | 0.00 | 0.23 | 0.23 | 69 | 1023.6 |
| 20260508052226 | 3 | 226 | 0.0 | 0.0 | 0.00 | 0.23 | 0.23 | 68 | 1023.5 |
| 20260508051722 | 5 | 21 | 3.2 | 6.4 | 0.00 | 0.23 | 0.23 | 64 | 1023.6 |
| 20260508051217 | 5 | 260 | 0.0 | 0.0 | 0.00 | 0.23 | 0.23 | 57 | 1023.3 |
| 20260508050714 | 5 | 258 | 0.0 | 0.0 | 0.00 | 0.23 | 0.23 | 55 | 1023.3 |
| 20260508050212 | 6 | 236 | 0.0 | 0.0 | 0.00 | 0.23 | 0.23 | 55 | 1023.2 |
| 20260508045712 | 6 | 261 | 0.0 | 9.7 | 0.00 | 0.23 | 0.23 | 51 | 1023.2 |
| 20260508045210 | 6 | 244 | 1.6 | 9.7 | 0.00 | 0.23 | 0.23 | 52 | 1023.3 |
| 20260508044707 | 6 | 237 | 3.2 | 6.4 | 0.00 | 0.23 | 0.23 | 53 | 1023.3 |
| 20260508044203 | 6 | 253 | 0.0 | 3.2 | 0.00 | 0.23 | 0.23 | 51 | 1023.2 |
| 20260508043659 | 6 | 252 | 1.6 | 14.5 | 0.00 | 0.23 | 0.23 | 48 | 1023.5 |
| 20260508043158 | 6 | 270 | 1.6 | 6.4 | 0.00 | 0.23 | 0.23 | 49 | 1023.3 |
| 20260508042654 | 7 | 301 | 6.4 | 12.9 | 0.00 | 0.23 | 0.23 | 49 | 1023.2 |
| 20260508042151 | 6 | 250 | 6.4 | 12.9 | 0.00 | 0.23 | 0.23 | 49 | 1023.2 |
| 20260508041647 | 6 | 239 | 8.0 | 11.3 | 0.00 | 0.23 | 0.23 | 49 | 1023.2 |
| 20260508041145 | 7 | 281 | 3.2 | 16.1 | 0.00 | 0.23 | 0.23 | 49 | 1023.2 |
| 20260508040641 | 6 | 255 | 4.8 | 16.1 | 0.00 | 0.23 | 0.23 | 49 | 1022.8 |
| 20260508040138 | 6 | 202 | 11.3 | 20.9 | 0.00 | 0.23 | 0.23 | 49 | 1022.7 |
| 20260508035636 | 7 | 278 | 6.4 | 22.5 | 0.00 | 0.23 | 0.23 | 49 | 1022.7 |
| 20260508035133 | 7 | 240 | 11.3 | 25.7 | 0.00 | 0.23 | 0.23 | 49 | 1022.9 |
| 20260508034630 | 7 | 230 | 20.9 | 29.0 | 0.00 | 0.23 | 0.23 | 48 | 1023.1 |
| 20260508034127 | 6 | 266 | 4.8 | 12.9 | 0.00 | 0.23 | 0.23 | 49 | 1023.1 |
| 20260508033624 | 6 | 233 | 8.0 | 30.6 | 0.00 | 0.23 | 0.23 | 49 | 1022.8 |
| 20260508033122 | 6 | 245 | 9.7 | 25.7 | 0.00 | 0.23 | 0.23 | 50 | 1022.8 |
| 20260508032618 | 6 | 219 | 17.7 | 25.7 | 0.00 | 0.23 | 0.23 | 51 | 1022.9 |
| 20260508032116 | 5 | 197 | 14.5 | 24.1 | 0.00 | 0.23 | 0.23 | 56 | 1022.8 |
| 20260508031613 | 5 | 216 | 9.7 | 12.9 | 0.00 | 0.23 | 0.23 | 60 | 1022.8 |
| 20260508031109 | 5 | 209 | 3.2 | 11.3 | 0.00 | 0.23 | 0.23 | 61 | 1022.7 |
| 20260508030605 | 5 | 226 | 6.4 | 11.3 | 0.00 | 0.23 | 0.23 | 61 | 1022.7 |
| 20260508030104 | 5 | 231 | 4.8 | 14.5 | 0.00 | 0.23 | 0.23 | 60 | 1022.9 |
| 20260508025559 | 5 | 223 | 3.2 | 6.4 | 0.00 | 0.23 | 0.23 | 60 | 1022.8 |
| 20260508025057 | 5 | 228 | 6.4 | 11.3 | 0.00 | 0.23 | 0.23 | 62 | 1022.7 |
| 20260508024552 | 5 | 220 | 8.0 | 12.9 | 0.00 | 0.23 | 0.23 | 59 | 1022.7 |
| 20260508024050 | 5 | 223 | 11.3 | 20.9 | 0.00 | 0.23 | 0.23 | 59 | 1022.3 |
| 20260508023546 | 6 | 229 | 11.3 | 16.1 | 0.00 | 0.23 | 0.23 | 59 | 1022.5 |
| 20260508023044 | 5 | 212 | 6.4 | 14.5 | 0.00 | 0.23 | 0.23 | 58 | 1022.7 |
| 20260508022539 | 5 | 257 | 6.4 | 20.9 | 0.00 | 0.23 | 0.23 | 64 | 1022.8 |
| 20260508022037 | 5 | 238 | 1.6 | 9.7 | 0.00 | 0.23 | 0.23 | 67 | 1022.7 |
| 20260508021533 | 5 | 237 | 9.7 | 12.9 | 0.00 | 0.23 | 0.23 | 67 | 1022.9 |
| 20260508021029 | 5 | 317 | 6.4 | 17.7 | 0.00 | 0.23 | 0.23 | 68 | 1023.3 |
| 20260508020526 | 5 | 274 | 3.2 | 6.4 | 0.00 | 0.23 | 0.23 | 67 | 1023.5 |
| 20260508020024 | 5 | 310 | 3.2 | 12.9 | 0.00 | 0.23 | 0.23 | 65 | 1023.3 |
| 20260508015521 | 5 | 255 | 1.6 | 11.3 | 0.00 | 0.23 | 0.23 | 65 | 1023.2 |
| 20260508015018 | 5 | 289 | 9.7 | 17.7 | 0.00 | 0.23 | 0.23 | 63 | 1023.1 |
| 20260508014515 | 5 | 230 | 3.2 | 9.7 | 0.00 | 0.23 | 0.23 | 63 | 1022.8 |
| 20260508014011 | 5 | 236 | 3.2 | 12.9 | 0.00 | 0.23 | 0.23 | 63 | 1022.7 |
| 20260508013507 | 6 | 262 | 6.4 | 9.7 | 0.00 | 0.23 | 0.23 | 61 | 1022.8 |
| 20260508013005 | 6 | 234 | 9.7 | 12.9 | 0.00 | 0.23 | 0.23 | 60 | 1022.7 |
| 20260508012501 | 6 | 235 | 6.4 | 11.3 | 0.00 | 0.23 | 0.23 | 60 | 1022.7 |
| 20260508011958 | 6 | 236 | 12.9 | 29.0 | 0.00 | 0.23 | 0.23 | 58 | 1022.7 |
| 20260508011456 | 6 | 220 | 9.7 | 22.5 | 0.00 | 0.23 | 0.23 | 58 | 1022.7 |
| 20260508010953 | 6 | 206 | 11.3 | 14.5 | 0.00 | 0.23 | 0.23 | 57 | 1022.5 |
| 20260508010450 | 7 | 252 | 4.8 | 14.5 | 0.00 | 0.23 | 0.23 | 54 | 1022.9 |
| 20260508005947 | 7 | 270 | 8.0 | 11.3 | 0.00 | 0.23 | 0.23 | 51 | 1022.5 |
| 20260508005444 | 7 | 208 | 6.4 | 16.1 | 0.00 | 0.23 | 0.23 | 49 | 1022.4 |
| 20260508004940 | 8 | 242 | 6.4 | 9.7 | 0.00 | 0.23 | 0.23 | 49 | 1022.4 |
| 20260508004436 | 8 | 299 | 3.2 | 3.2 | 0.00 | 0.23 | 0.23 | 48 | 1022.1 |
| 20260508003933 | 8 | 319 | 4.8 | 4.8 | 0.00 | 0.23 | 0.23 | 48 | 1022.0 |
| 20260508003430 | 8 | 289 | 3.2 | 11.3 | 0.00 | 0.23 | 0.23 | 46 | 1022.1 |
| 20260508002927 | 8 | 300 | 3.2 | 11.3 | 0.00 | 0.23 | 0.23 | 46 | 1021.8 |
| 20260508002424 | 8 | 8 | 3.2 | 6.4 | 0.00 | 0.23 | 0.23 | 47 | 1021.9 |
| 20260508001920 | 8 | 266 | 1.6 | 9.7 | 0.00 | 0.23 | 0.23 | 47 | 1021.9 |
| 20260508001416 | 9 | 321 | 6.4 | 11.3 | 0.00 | 0.23 | 0.23 | 45 | 1022.1 |
| 20260508000913 | 9 | 163 | 6.4 | 14.5 | 0.00 | 0.23 | 0.23 | 45 | 1022.1 |
| 20260508000405 | 8 | 278 | 0.0 | 0.0 | 0.00 | 0.23 | 0.23 | 48 | 1022.3 |
| 20260507235901 | 8 | 279 | 3.2 | 9.7 | 0.00 | 0.23 | 0.23 | 47 | 1022.3 |
| 20260507235358 | 8 | 265 | 3.2 | 6.4 | 0.00 | 0.23 | 0.23 | 46 | 1022.3 |
| 20260507234855 | 8 | 259 | 3.2 | 20.9 | 0.00 | 0.23 | 0.23 | 47 | 1022.1 |
| 20260507234352 | 8 | 281 | 1.6 | 16.1 | 0.00 | 0.23 | 0.23 | 46 | 1022.1 |
| 20260507233848 | 8 | 331 | 12.9 | 22.5 | 0.00 | 0.23 | 0.23 | 44 | 1022.1 |
| 20260507233345 | 9 | 293 | 8.0 | 12.9 | 0.00 | 0.23 | 0.23 | 43 | 1022.0 |
| 20260507232843 | 10 | 247 | 11.3 | 22.5 | 0.00 | 0.23 | 0.23 | 42 | 1022.0 |
| 20260507232339 | 10 | 182 | 12.9 | 22.5 | 0.00 | 0.23 | 0.23 | 40 | 1021.9 |
| 20260507231837 | 11 | 267 | 9.7 | 14.5 | 0.00 | 0.23 | 0.23 | 39 | 1022.0 |
| 20260507231333 | 10 | 271 | 8.0 | 16.1 | 0.00 | 0.23 | 0.23 | 40 | 1022.0 |
| 20260507230829 | 10 | 278 | 20.9 | 27.4 | 0.00 | 0.23 | 0.23 | 40 | 1022.1 |
| 20260507230322 | 10 | 316 | 14.5 | 17.7 | 0.00 | 0.23 | 0.23 | 38 | 1021.9 |
| 20260507225821 | 11 | 217 | 17.7 | 24.1 | 0.00 | 0.23 | 0.23 | 38 | 1022.0 |
| 20260507225317 | 10 | 306 | 9.7 | 11.3 | 0.00 | 0.23 | 0.23 | 39 | 1022.3 |
| 20260507224814 | 10 | 349 | 11.3 | 12.9 | 0.00 | 0.23 | 0.23 | 39 | 1022.0 |
| 20260507224310 | 10 | 323 | 6.4 | 16.1 | 0.00 | 0.23 | 0.23 | 40 | 1022.0 |
| 20260507223807 | 10 | 328 | 4.8 | 14.5 | 0.00 | 0.23 | 0.23 | 41 | 1022.0 |
| 20260507223303 | 10 | 324 | 3.2 | 16.1 | 0.00 | 0.23 | 0.23 | 42 | 1022.1 |
| 20260507222801 | 10 | 325 | 4.8 | 14.5 | 0.00 | 0.23 | 0.23 | 41 | 1022.1 |
| 20260507222256 | 10 | 239 | 3.2 | 12.9 | 0.00 | 0.23 | 0.23 | 40 | 1022.1 |
| 20260507221754 | 10 | 280 | 17.7 | 33.8 | 0.00 | 0.23 | 0.23 | 40 | 1022.1 |
| 20260507221250 | 10 | 41 | 6.4 | 16.1 | 0.00 | 0.23 | 0.23 | 41 | 1022.4 |
| 20260507220746 | 10 | 310 | 3.2 | 9.7 | 0.00 | 0.23 | 0.23 | 40 | 1022.4 |
| 20260507220245 | 10 | 207 | 6.4 | 16.1 | 0.00 | 0.23 | 0.23 | 41 | 1022.5 |
| 20260507215741 | 9 | 317 | 6.4 | 12.9 | 0.00 | 0.23 | 0.23 | 41 | 1022.1 |
| 20260507215238 | 10 | 348 | 9.7 | 14.5 | 0.00 | 0.23 | 0.23 | 40 | 1022.3 |
| 20260507214735 | 10 | 307 | 8.0 | 24.1 | 0.00 | 0.23 | 0.23 | 39 | 1022.5 |
| 20260507214232 | 9 | 279 | 8.0 | 24.1 | 0.00 | 0.23 | 0.23 | 41 | 1022.5 |
| 20260507213727 | 9 | 295 | 9.7 | 16.1 | 0.00 | 0.23 | 0.23 | 41 | 1022.7 |
| 20260507213225 | 9 | 299 | 8.0 | 12.9 | 0.00 | 0.23 | 0.23 | 40 | 1022.7 |
| 20260507212721 | 9 | 233 | 11.3 | 24.1 | 0.00 | 0.23 | 0.23 | 39 | 1022.7 |
| 20260507212218 | 10 | 349 | 4.8 | 22.5 | 0.00 | 0.23 | 0.23 | 42 | 1022.8 |
| 20260507211715 | 10 | 277 | 12.9 | 16.1 | 0.00 | 0.23 | 0.23 | 40 | 1022.9 |
| 20260507211210 | 10 | 336 | 9.7 | 17.7 | 0.00 | 0.23 | 0.23 | 39 | 1023.1 |
| 20260507210708 | 10 | 305 | 3.2 | 16.1 | 0.00 | 0.23 | 0.23 | 37 | 1023.2 |
| 20260507210205 | 10 | 237 | 19.3 | 24.1 | 0.00 | 0.23 | 0.23 | 38 | 1023.2 |
| 20260507205701 | 10 | 261 | 11.3 | 22.5 | 0.00 | 0.23 | 0.23 | 39 | 1023.1 |
| 20260507205158 | 10 | 316 | 9.7 | 22.5 | 0.00 | 0.23 | 0.23 | 40 | 1023.3 |
| 20260507204654 | 10 | 330 | 12.9 | 22.5 | 0.00 | 0.23 | 0.23 | 39 | 1023.1 |
| 20260507204152 | 10 | 351 | 11.3 | 20.9 | 0.00 | 0.23 | 0.23 | 40 | 1022.9 |
| 20260507203650 | 9 | 230 | 8.0 | 25.7 | 0.00 | 0.23 | 0.23 | 40 | 1023.2 |
| 20260507203147 | 10 | 328 | 20.9 | 25.7 | 0.00 | 0.23 | 0.23 | 39 | 1023.2 |
| 20260507202642 | 10 | 8 | 14.5 | 29.0 | 0.00 | 0.23 | 0.23 | 40 | 1022.9 |
| 20260507202139 | 10 | 354 | 9.7 | 25.7 | 0.00 | 0.23 | 0.23 | 40 | 1023.2 |
| 20260507201634 | 10 | 0 | 14.5 | 24.1 | 0.00 | 0.23 | 0.23 | 41 | 1023.2 |
| 20260507201131 | 10 | 332 | 4.8 | 14.5 | 0.00 | 0.23 | 0.23 | 40 | 1023.3 |
| 20260507200627 | 10 | 352 | 4.8 | 17.7 | 0.00 | 0.23 | 0.23 | 43 | 1023.3 |
| 20260507200123 | 10 | 306 | 6.4 | 9.7 | 0.00 | 0.23 | 0.23 | 42 | 1023.2 |
| 20260507195620 | 9 | 251 | 3.2 | 16.1 | 0.00 | 0.23 | 0.23 | 43 | 1023.2 |
| 20260507195117 | 10 | 259 | 4.8 | 20.9 | 0.00 | 0.23 | 0.23 | 43 | 1023.1 |
| 20260507194614 | 10 | 3 | 6.4 | 20.9 | 0.00 | 0.23 | 0.23 | 44 | 1023.3 |
| 20260507194109 | 9 | 257 | 3.2 | 16.1 | 0.00 | 0.23 | 0.23 | 45 | 1023.5 |
| 20260507193607 | 8 | 240 | 9.7 | 24.1 | 0.00 | 0.23 | 0.23 | 44 | 1023.5 |
| 20260507193103 | 8 | 265 | 12.9 | 24.1 | 0.00 | 0.23 | 0.23 | 45 | 1023.3 |
| 20260507192600 | 8 | 264 | 14.5 | 24.1 | 0.00 | 0.23 | 0.23 | 44 | 1023.5 |
| 20260507192057 | 8 | 282 | 3.2 | 27.4 | 0.00 | 0.23 | 0.23 | 44 | 1023.6 |
| 20260507191552 | 8 | 280 | 8.0 | 20.9 | 0.00 | 0.23 | 0.23 | 44 | 1023.2 |
| 20260507191050 | 9 | 217 | 17.7 | 25.7 | 0.00 | 0.23 | 0.23 | 46 | 1023.5 |
| 20260507190547 | 9 | 281 | 6.4 | 20.9 | 0.00 | 0.23 | 0.23 | 49 | 1023.5 |
| 20260507190045 | 8 | 352 | 11.3 | 16.1 | 0.13 | 0.23 | 0.23 | 48 | 1023.1 |
| 20260507185543 | 8 | 333 | 9.7 | 20.9 | 0.13 | 0.23 | 0.23 | 46 | 1023.7 |
| 20260507185039 | 8 | 265 | 9.7 | 17.7 | 0.00 | 0.20 | 0.20 | 48 | 1023.7 |
| 20260507184538 | 8 | 261 | 6.4 | 24.1 | 0.00 | 0.20 | 0.20 | 48 | 1023.9 |
| 20260507184036 | 8 | 235 | 11.3 | 17.7 | 0.18 | 0.20 | 0.20 | 47 | 1023.9 |
| 20260507183531 | 8 | 265 | 11.3 | 16.1 | 0.00 | 0.18 | 0.18 | 47 | 1024.0 |
| 20260507183029 | 7 | 215 | 11.3 | 29.0 | 0.00 | 0.18 | 0.18 | 50 | 1024.0 |
| 20260507182525 | 7 | 235 | 11.3 | 20.9 | 0.13 | 0.18 | 0.18 | 52 | 1024.0 |
| 20260507182021 | 8 | 261 | 12.9 | 14.5 | 0.13 | 0.18 | 0.18 | 51 | 1024.0 |
| 20260507181518 | 8 | 265 | 17.7 | 20.9 | 0.00 | 0.15 | 0.15 | 51 | 1024.0 |
| 20260507181014 | 8 | 266 | 17.7 | 29.0 | 0.18 | 0.15 | 0.15 | 49 | 1024.0 |
| 20260507180510 | 8 | 305 | 16.1 | 25.7 | 0.30 | 0.15 | 0.15 | 49 | 1023.9 |
| 20260507180007 | 8 | 232 | 6.4 | 17.7 | 0.13 | 0.13 | 0.13 | 50 | 1023.6 |
| 20260507175503 | 8 | 283 | 8.0 | 17.7 | 0.18 | 0.10 | 0.10 | 49 | 1023.5 |
| 20260507175001 | 8 | 299 | 6.4 | 9.7 | 0.18 | 0.08 | 0.08 | 54 | 1023.7 |
| 20260507174458 | 6 | 252 | 0.0 | 3.2 | 0.18 | 0.08 | 0.08 | 62 | 1023.9 |
| 20260507173956 | 5 | 275 | 0.0 | 1.6 | 0.00 | 0.05 | 0.05 | 63 | 1023.9 |
| 20260507173453 | 5 | 324 | 8.0 | 11.3 | 0.00 | 0.05 | 0.05 | 61 | 1024.1 |
| 20260507172950 | 6 | 262 | 0.0 | 6.4 | 0.00 | 0.05 | 0.05 | 59 | 1024.0 |
| 20260507172446 | 5 | 235 | 8.0 | 16.1 | 0.13 | 0.05 | 0.05 | 57 | 1023.7 |
| 20260507171942 | 5 | 218 | 6.4 | 16.1 | 0.13 | 0.05 | 0.05 | 60 | 1024.0 |
| 20260507171438 | 5 | 276 | 8.0 | 16.1 | 0.00 | 0.03 | 0.03 | 56 | 1024.1 |
| 20260507170936 | 5 | 250 | 4.8 | 16.1 | 0.00 | 0.03 | 0.03 | 60 | 1024.0 |
| 20260507170432 | 4 | 141 | 8.0 | 9.7 | 0.00 | 0.03 | 0.03 | 65 | 1023.9 |
| 20260507165929 | 4 | 172 | 6.4 | 11.3 | 0.18 | 0.03 | 0.03 | 65 | 1024.0 |
| 20260507165425 | 4 | 186 | 6.4 | 11.3 | 0.18 | 0.03 | 0.03 | 62 | 1023.9 |
| 20260507164921 | 4 | 232 | 3.2 | 11.3 | 0.00 | 0.00 | 0.00 | 66 | 1023.7 |
| 20260507164418 | 3 | 206 | 4.8 | 6.4 | 0.00 | 0.00 | 0.00 | 67 | 1024.1 |
| 20260507163915 | 3 | 223 | 1.6 | 3.2 | 0.00 | 0.00 | 0.00 | 69 | 1023.9 |
| 20260507163412 | 3 | 217 | 3.2 | 4.8 | 0.00 | 0.00 | 0.00 | 71 | 1024.0 |
| 20260507162909 | 3 | 211 | 3.2 | 4.8 | 0.00 | 0.00 | 0.00 | 73 | 1024.1 |
| 20260507162404 | 3 | 225 | 3.2 | 4.8 | 0.00 | 0.00 | 0.00 | 67 | 1024.3 |
| 20260507161902 | 3 | 216 | 4.8 | 9.7 | 0.00 | 0.00 | 0.00 | 62 | 1024.3 |
| 20260507161358 | 3 | 195 | 9.7 | 14.5 | 0.00 | 0.00 | 0.00 | 62 | 1024.6 |
| 20260507160855 | 3 | 239 | 6.4 | 20.9 | 0.00 | 0.00 | 0.00 | 62 | 1024.4 |
| 20260507160350 | 3 | 220 | 3.2 | 4.8 | 0.00 | 0.00 | 0.00 | 71 | 1024.9 |
| 20260507155847 | 3 | 209 | 3.2 | 12.9 | 0.00 | 0.00 | 0.00 | 63 | 1024.9 |
| 20260507155342 | 3 | 251 | 4.8 | 20.9 | 0.00 | 0.00 | 0.00 | 62 | 1024.6 |
| 20260507154839 | 3 | 205 | 12.9 | 24.1 | 0.00 | 0.00 | 0.00 | 61 | 1024.3 |
| 20260507154337 | 3 | 231 | 8.0 | 20.9 | 0.00 | 0.00 | 0.00 | 66 | 1024.6 |
| 20260507153833 | 3 | 229 | 9.7 | 12.9 | 0.00 | 0.00 | 0.00 | 65 | 1024.8 |
| 20260507153330 | 3 | 216 | 8.0 | 12.9 | 0.00 | 0.00 | 0.00 | 65 | 1024.8 |
| 20260507152826 | 3 | 168 | 9.7 | 14.5 | 0.00 | 0.00 | 0.00 | 61 | 1024.4 |
| 20260507152322 | 3 | 272 | 4.8 | 12.9 | 0.00 | 0.00 | 0.00 | 64 | 1024.4 |
| 20260507151818 | 3 | 222 | 9.7 | 11.3 | 0.00 | 0.00 | 0.00 | 62 | 1024.8 |
| 20260507151315 | 3 | 209 | 9.7 | 16.1 | 0.00 | 0.00 | 0.00 | 64 | 1024.6 |
| 20260507150812 | 3 | 315 | 14.5 | 30.6 | 0.00 | 0.00 | 0.00 | 61 | 1024.6 |
| 20260507150308 | 3 | 291 | 8.0 | 33.8 | 0.00 | 0.00 | 0.00 | 61 | 1024.6 |
| 20260507145804 | 4 | 241 | 19.3 | 29.0 | 0.00 | 0.00 | 0.00 | 59 | 1024.6 |
| 20260507145301 | 4 | 265 | 12.9 | 17.7 | 0.00 | 0.00 | 0.00 | 60 | 1024.6 |
| 20260507144758 | 4 | 282 | 16.1 | 27.4 | 0.00 | 0.00 | 0.00 | 59 | 1024.4 |
| 20260507144255 | 5 | 228 | 11.3 | 17.7 | 0.00 | 0.00 | 0.00 | 62 | 1024.3 |
| 20260507143752 | 5 | 341 | 9.7 | 24.1 | 0.00 | 0.00 | 0.00 | 60 | 1024.4 |
| 20260507143249 | 5 | 279 | 6.4 | 29.0 | 0.00 | 0.00 | 0.00 | 59 | 1024.1 |
| 20260507142745 | 5 | 324 | 11.3 | 25.7 | 0.00 | 0.00 | 0.00 | 60 | 1024.0 |
| 20260507142242 | 5 | 259 | 16.1 | 30.6 | 0.00 | 0.00 | 0.00 | 58 | 1024.4 |
| 20260507141739 | 5 | 237 | 8.0 | 16.1 | 0.00 | 0.00 | 0.00 | 58 | 1024.3 |
| 20260507141236 | 5 | 30 | 14.5 | 17.7 | 0.00 | 0.00 | 0.00 | 59 | 1024.3 |
| 20260507140731 | 4 | 276 | 9.7 | 22.5 | 0.00 | 0.00 | 0.00 | 60 | 1024.3 |
| 20260507140229 | 4 | 244 | 17.7 | 24.1 | 0.00 | 0.00 | 0.00 | 61 | 1024.3 |
| 20260507135726 | 4 | 277 | 1.6 | 9.7 | 0.00 | 0.00 | 0.00 | 63 | 1024.3 |
| 20260507135223 | 4 | 338 | 4.8 | 12.9 | 0.00 | 0.00 | 0.00 | 62 | 1024.4 |
| 20260507134719 | 3 | 257 | 6.4 | 16.1 | 0.00 | 0.00 | 0.00 | 62 | 1024.3 |
| 20260507134216 | 3 | 290 | 1.6 | 4.8 | 0.00 | 0.00 | 0.00 | 60 | 1024.1 |
| 20260507133712 | 3 | 269 | 4.8 | 9.7 | 0.00 | 0.00 | 0.00 | 62 | 1024.1 |
| 20260507133209 | 3 | 315 | 1.6 | 12.9 | 0.00 | 0.00 | 0.00 | 63 | 1024.1 |
| 20260507132707 | 3 | 343 | 4.8 | 11.3 | 0.00 | 0.00 | 0.00 | 62 | 1024.1 |
| 20260507132203 | 3 | 241 | 3.2 | 16.1 | 0.00 | 0.00 | 0.00 | 60 | 1024.0 |
| 20260507131700 | 2 | 268 | 3.2 | 12.9 | 0.00 | 0.00 | 0.00 | 61 | 1023.6 |
| 20260507131157 | 2 | 229 | 12.9 | 30.6 | 0.00 | 0.00 | 0.00 | 61 | 1023.7 |
| 20260507130653 | 2 | 205 | 11.3 | 20.9 | 0.00 | 0.00 | 0.00 | 61 | 1023.7 |
| 20260507130151 | 2 | 282 | 9.7 | 22.5 | 0.00 | 0.00 | 0.00 | 60 | 1024.1 |
| 20260507125650 | 2 | 240 | 3.2 | 12.9 | 0.00 | 0.00 | 0.00 | 61 | 1023.9 |
| 20260507125147 | 1 | 246 | 6.4 | 27.4 | 0.00 | 0.00 | 0.00 | 61 | 1024.1 |
| 20260507124643 | 1 | 210 | 9.7 | 20.9 | 0.00 | 0.00 | 0.00 | 60 | 1024.1 |
| 20260507124141 | 1 | 237 | 14.5 | 27.4 | 0.00 | 0.00 | 0.00 | 61 | 1023.7 |
| 20260507123639 | 1 | 230 | 11.3 | 24.1 | 0.00 | 0.00 | 0.00 | 62 | 1023.9 |
| 20260507123136 | 1 | 237 | 12.9 | 17.7 | 0.00 | 0.00 | 0.00 | 63 | 1023.7 |
| 20260507122631 | 0 | 244 | 9.7 | 17.7 | 0.00 | 0.00 | 0.00 | 64 | 1023.5 |